Location: Unspecified
(0.0000°N, 0.0000°E)
Time: 02:47:31
(UTC+00:00)

Courier 1B Rocket - Pass Details

Date: 13 December 2018
Orbit: 920 x 1202 km, 28.2° (Epoch: 18 March)

Event Time Altitude Azimuth Distance (km) Brightness Sun altitude
Rises 08:12:47 0° 272° (W) 3,582 7.5 31.5°
Reaches altitude 10° 08:16:02 10° 288° (WNW) 2,667 6.9 32.3°
Maximum altitude 08:20:44 21° 335° (NNW) 2,036 6.5 33.3°
Drops below altitude 10° 08:25:38 10° 22° (NNE) 2,790 7.4 34.4°
Sets 08:29:09 0° 38° (NE) 3,797 8.2 35.1°
